Weather reports worldwide

Advertisment
Thorney Island, United Kingdom (3872): temperature & dewpoint: 18.05.2018 07:00:00 - 24.05.2018 07:00:00 (BST)Thorney Island, United Kingdom (3872): temperature -20cm & temperature -100cm: 18.05.2018 07:00:00 - 24.05.2018 07:00:00 (BST)Thorney Island, United Kingdom (3872): wind speed: 18.05.2018 07:00:00 - 24.05.2018 07:00:00 (BST)Thorney Island, United Kingdom (3872): wind direction: 18.05.2018 07:00:00 - 24.05.2018 07:00:00 (BST)Thorney Island, United Kingdom (3872): reduced air pressure: 18.05.2018 07:00:00 - 24.05.2018 07:00:00 (BST)Thorney Island, United Kingdom (3872): visibility: 18.05.2018 07:00:00 - 24.05.2018 07:00:00 (BST)Thorney Island, United Kingdom (3872): precipitation: 18.05.2018 07:00:00 - 24.05.2018 07:00:00 (BST)
Date & Time tt [°C] td [°C] tt -20cm [°C] tt -100cm [°C] ff [km/h] ff [kn] dd ppp [hPa] vv [km] rr [mm]
24.05.2018 07:00:00 12,5 10,9 - - 16 9 NE 1019,6 13 0,0
24.05.2018 06:00:00 12,0 10,6 - - 18 10 NNE 1019,7 10 0,0
24.05.2018 05:00:00 11,6 10,2 - - 16 9 NE 1019,7 9 0,0
24.05.2018 04:00:00 11,4 9,9 - - 18 10 NE 1020,2 11 0,0
24.05.2018 03:00:00 11,6 9,9 - - 18 10 NNE 1020,1 11 0,2
24.05.2018 02:00:00 11,9 9,5 - - 16 9 NE 1020,7 13 0,0
24.05.2018 01:00:00 11,8 9,5 - - 16 9 NNE 1021,0 11 -
24.05.2018 00:00:00 12,3 9,7 - - 15 8 NNE 1021,2 14 0,0
23.05.2018 23:00:00 13,6 10,4 - - 15 8 NE 1021,6 13 0,0
23.05.2018 22:00:00 14,8 11,3 - - 18 10 NE 1021,6 16 0,0
23.05.2018 21:00:00 15,0 12,4 - - 11 6 NNE 1021,2 15 0,0
23.05.2018 20:00:00 16,3 12,0 - - 18 10 NNE 1021,4 19 0,0
23.05.2018 19:00:00 14,4 12,3 - - 8 4 S 1021,2 10 -
23.05.2018 18:00:00 15,4 12,2 - - 8 4 S 1021,1 12 0,0
23.05.2018 17:00:00 20,2 12,2 - - 21 11 ENE 1021,0 26 0,0
23.05.2018 16:00:00 20,6 12,5 - - 21 11 ENE 1021,2 16 0,0
23.05.2018 15:00:00 20,6 12,6 - - 22 12 ENE 1021,5 22 0,0
23.05.2018 14:00:00 20,4 11,6 - - 21 11 E 1021,7 30 0,0
23.05.2018 13:00:00 20,2 11,2 - - 26 14 NNE 1021,8 35 -
23.05.2018 12:00:00 18,3 10,4 - - 22 12 NNE 1022,0 18 0,0
23.05.2018 11:00:00 17,3 10,9 - - 22 12 NNE 1022,3 30 0,0
23.05.2018 10:00:00 15,5 10,0 15,7 12,2 21 11 NNE 1022,5 17 0,0
23.05.2018 09:00:00 14,1 9,7 - - 24 13 NE 1022,2 23 0,0
23.05.2018 08:00:00 12,2 8,5 - - 24 13 NNE 1021,9 16 0,0
23.05.2018 07:00:00 11,1 8,2 - - 13 7 NE 1021,5 17 0,0
23.05.2018 06:00:00 10,1 8,1 - - 15 8 NE 1020,8 14 0,0
23.05.2018 05:00:00 9,8 8,0 - - 13 7 NE 1020,5 12 0,0
23.05.2018 04:00:00 10,0 8,2 - - 15 8 NNE 1020,3 12 0,0
23.05.2018 03:00:00 10,3 8,3 - - 16 9 NNE 1020,2 12 0,0
23.05.2018 02:00:00 11,3 8,5 - - 16 9 NNE 1020,1 13 0,0
23.05.2018 01:00:00 12,4 8,4 - - 13 7 NE 1020,1 23 0,0
23.05.2018 00:00:00 13,7 8,5 - - 21 11 NE 1019,9 27 0,0
22.05.2018 23:00:00 14,4 8,9 - - 18 10 NE 1019,4 30 0,0
22.05.2018 22:00:00 16,0 9,4 - - 22 12 NNE 1019,0 35 0,0
22.05.2018 21:00:00 17,9 10,0 - - 26 14 NE 1017,9 40 0,0
22.05.2018 20:00:00 20,0 10,5 - - 22 12 NE 1017,2 35 0,0
22.05.2018 19:00:00 21,5 10,6 - - 21 11 NNE 1016,6 35 0,0
22.05.2018 18:00:00 22,1 12,7 - - 18 10 NNE 1015,9 40 0,8
22.05.2018 17:00:00 22,7 15,3 - - 13 7 NNE 1015,9 8 0,8
22.05.2018 16:00:00 23,2 13,4 - - 16 9 NNE 1015,8 30 0,0
22.05.2018 15:00:00 22,6 12,3 - - 18 10 NE 1015,9 21 0,0
22.05.2018 14:00:00 23,4 13,3 - - 18 10 NE 1015,6 30 0,0
22.05.2018 13:00:00 22,4 11,0 - - 21 11 NNE 1015,5 22 0,0
22.05.2018 12:00:00 21,7 10,5 - - 18 10 NE 1015,5 35 0,0
22.05.2018 11:00:00 19,7 9,8 - - 13 7 NNE 1015,5 40 0,0
22.05.2018 10:00:00 18,5 10,9 15,0 12,2 15 8 NE 1015,4 45 0,0
22.05.2018 09:00:00 15,2 9,4 - - 18 10 NNE 1015,2 27 0,0
22.05.2018 08:00:00 14,9 9,5 - - 15 8 N 1015,1 35 0,0
22.05.2018 07:00:00 12,8 9,4 - - 21 11 NNE 1014,7 24 0,0
22.05.2018 06:00:00 12,4 9,4 - - 15 8 NNE 1014,2 21 0,0
22.05.2018 05:00:00 12,2 9,7 - - 11 6 N 1013,9 24 0,0
22.05.2018 04:00:00 12,1 9,7 - - 8 4 NNE 1013,9 30 0,0
22.05.2018 03:00:00 12,0 10,2 - - 5 3 NNW 1013,9 23 0,0
22.05.2018 02:00:00 12,8 10,8 - - 8 4 N 1014,0 30 0,0
22.05.2018 01:00:00 13,1 11,3 - - 2 1 W 1013,9 16 0,0
22.05.2018 00:00:00 13,1 10,9 - - 5 3 NNW 1014,1 18 0,0
21.05.2018 23:00:00 14,1 10,9 - - 8 4 N 1014,3 35 0,0
21.05.2018 22:00:00 15,9 11,3 - - 4 2 NNW 1014,4 45 0,0
21.05.2018 21:00:00 15,9 11,8 - - 9 5 NE 1014,2 35 0,0
21.05.2018 20:00:00 16,5 12,5 - - 8 4 NW 1013,9 35 0,0
21.05.2018 19:00:00 18,3 12,5 - - 11 6 NNW 1013,9 35 0,0
21.05.2018 18:00:00 18,3 12,6 - - 11 6 W 1014,1 45 0,0
21.05.2018 17:00:00 17,1 12,3 - - 11 6 SW 1013,9 35 0,0
21.05.2018 16:00:00 17,5 12,2 - - 9 5 WSW 1014,2 35 0,0
21.05.2018 15:00:00 19,7 13,5 - - 13 7 SW 1014,4 30 0,0
21.05.2018 14:00:00 20,6 11,7 - - 9 5 NE 1015,0 26 0,0
21.05.2018 13:00:00 20,3 14,9 - - 13 7 SSW 1015,3 45 0,0
21.05.2018 12:00:00 20,5 11,4 - - 11 6 ESE 1015,6 30 0,0
21.05.2018 11:00:00 19,5 11,6 - - 13 7 E 1015,9 27 0,0
21.05.2018 10:00:00 18,5 11,9 14,9 12,2 11 6 E 1016,1 20 0,0
21.05.2018 09:00:00 16,0 10,9 - - 11 6 ENE 1016,4 16 0,0
21.05.2018 08:00:00 14,4 9,9 - - 11 6 NE 1016,5 13 0,0
21.05.2018 07:00:00 12,0 9,2 - - 8 4 NE 1016,7 11 0,0
21.05.2018 06:00:00 9,6 7,9 - - 11 6 NNE 1016,6 9 0,0
21.05.2018 05:00:00 7,9 6,2 - - 4 2 NNE 1016,8 7 0,0
21.05.2018 04:00:00 9,0 7,4 - - 8 4 N 1017,2 9 0,0
21.05.2018 03:00:00 8,2 7,2 - - 8 4 N 1017,8 7 0,0
21.05.2018 02:00:00 7,7 6,9 - - 9 5 ENE 1018,4 9 0,0
21.05.2018 01:00:00 8,6 7,9 - - 9 5 ENE 1018,7 5 0,0
21.05.2018 00:00:00 9,7 8,6 - - 9 5 NE 1019,1 5 0,0
20.05.2018 23:00:00 10,6 9,0 - - 8 4 NE 1019,4 7 0,0
20.05.2018 22:00:00 12,0 9,9 - - 9 5 E 1019,7 11 0,0
20.05.2018 21:00:00 12,6 10,4 - - 8 4 S 1019,4 9 0,0
20.05.2018 20:00:00 14,3 11,5 - - 5 3 SW 1019,2 10 0,0
20.05.2018 19:00:00 14,6 11,5 - - 11 6 SSW 1019,3 10 0,0
20.05.2018 18:00:00 14,9 11,5 - - 11 6 SW 1019,6 11 0,0
20.05.2018 17:00:00 15,0 11,9 - - 13 7 SSW 1020,2 10 0,0
20.05.2018 16:00:00 14,3 11,3 - - 16 9 SW 1021,0 9 0,0
20.05.2018 15:00:00 14,9 11,6 - - 15 8 SSW 1021,7 9 0,0
20.05.2018 14:00:00 15,8 12,1 - - 15 8 SE 1022,2 12 0,0
20.05.2018 13:00:00 15,2 11,7 - - 13 7 SSE 1022,8 18 0,0
20.05.2018 12:00:00 13,9 10,5 - - 13 7 SSE 1023,2 21 0,0
20.05.2018 11:00:00 14,4 10,3 - - 8 4 ESE 1023,4 14 0,0
20.05.2018 10:00:00 12,2 10,1 14,7 12,0 5 3 ENE 1023,5 9 0,0
20.05.2018 09:00:00 10,8 9,9 - - 8 4 ESE 1023,5 6 0,0
20.05.2018 08:00:00 9,9 9,5 - - 8 4 ESE 1023,5 5 0,0
20.05.2018 07:00:00 9,6 9,3 - - 8 4 ENE 1023,5 4,2 0,0
20.05.2018 06:00:00 9,5 9,2 - - 8 4 ENE 1023,0 3,6 0,0
20.05.2018 05:00:00 9,6 9,3 - - 9 5 SE 1022,8 5 0,0
20.05.2018 04:00:00 6,4 6,1 - - 5 3 ENE 1023,0 5 0,0
20.05.2018 03:00:00 7,0 6,6 - - 4 2 NNE 1023,4 4,6 0,0
20.05.2018 02:00:00 7,8 7,5 - - 8 4 E 1023,5 3,7 0,0
20.05.2018 01:00:00 7,8 7,3 - - 8 4 E 1023,8 4,4 0,0
20.05.2018 00:00:00 8,8 8,2 - - 8 4 E 1023,8 4,3 0,0
19.05.2018 23:00:00 9,3 8,6 - - 8 4 ESE 1023,8 5 0,0
19.05.2018 22:00:00 9,6 8,7 - - 8 4 SE 1023,5 11 0,0
19.05.2018 21:00:00 10,5 8,9 - - 9 5 S 1023,1 16 0,0
19.05.2018 20:00:00 12,0 9,7 - - 9 5 S 1022,9 18 0,0
19.05.2018 19:00:00 12,8 10,1 - - 13 7 S 1022,9 21 0,0
19.05.2018 18:00:00 13,0 10,1 - - 15 8 S 1023,1 19 0,0
19.05.2018 17:00:00 13,4 10,5 - - 16 9 SSW 1023,4 18 0,0
19.05.2018 16:00:00 13,8 11,0 - - 16 9 SSW 1023,8 17 0,0
19.05.2018 15:00:00 13,8 10,8 - - 18 10 SSW 1024,1 18 0,0
19.05.2018 14:00:00 13,7 11,0 - - 21 11 SSW 1024,3 27 0,0
19.05.2018 13:00:00 13,9 11,4 - - 22 12 SSW 1024,5 20 0,0
19.05.2018 12:00:00 14,1 11,3 - - 21 11 SSW 1024,7 29 0,0
19.05.2018 11:00:00 14,4 11,7 - - 16 9 SSW 1024,7 14 0,0
19.05.2018 10:00:00 14,1 10,0 14,4 12,0 8 4 S 1024,8 16 0,0
19.05.2018 09:00:00 12,1 11,6 - - 4 2 W 1024,7 5 0,0
19.05.2018 08:00:00 10,0 9,7 - - 4 2 ESE 1024,4 0,3 0,0
19.05.2018 07:00:00 8,0 7,6 - - 4 2 NE 1024,2 4,1 0,0
19.05.2018 06:00:00 6,4 5,9 - - 5 3 NE 1024,0 5 0,0
19.05.2018 05:00:00 6,7 6,2 - - 8 4 ENE 1024,0 5 0,0
19.05.2018 04:00:00 8,5 7,9 - - 4 2 ENE 1024,2 6 0,0
19.05.2018 03:00:00 9,2 8,4 - - 8 4 SSW 1024,3 12 0,0
19.05.2018 02:00:00 9,8 9,3 - - 11 6 SSW 1024,3 12 0,0
19.05.2018 01:00:00 8,1 7,7 - - 8 4 E 1024,6 7 0,0
19.05.2018 00:00:00 7,3 6,5 - - 9 5 NE 1024,6 10 0,0
18.05.2018 23:00:00 8,4 7,3 - - 5 3 ENE 1024,5 12 0,0
18.05.2018 22:00:00 9,9 8,1 - - 4 2 W 1024,5 17 0,0
18.05.2018 21:00:00 11,5 8,5 - - 8 4 WSW 1024,3 17 0,0
18.05.2018 20:00:00 12,8 9,4 - - 9 5 SW 1024,4 25 0,0
18.05.2018 19:00:00 12,5 8,2 - - 15 8 SSW 1024,5 28 0,0
18.05.2018 18:00:00 12,4 8,7 - - 13 7 SW 1024,5 24 0,0
18.05.2018 17:00:00 12,3 8,2 - - 16 9 SSW 1024,8 24 0,0
18.05.2018 16:00:00 13,4 9,7 - - 21 11 SSW 1024,8 18 0,0
18.05.2018 15:00:00 12,4 7,9 - - 16 9 SSW 1025,1 17 0,0
18.05.2018 14:00:00 12,5 8,5 - - 16 9 SSW 1025,4 23 0,0
18.05.2018 13:00:00 12,4 8,1 - - 18 10 SSW 1025,7 20 0,0
18.05.2018 12:00:00 12,6 7,9 - - 18 10 SSW 1025,8 23 0,0
18.05.2018 11:00:00 13,5 6,6 - - 8 4 NE 1026,1 30 0,0
18.05.2018 10:00:00 11,7 6,0 14,4 12,0 5 3 ENE 1026,5 30 0,0
18.05.2018 09:00:00 10,8 6,4 - - 9 5 E 1026,6 27 0,0
18.05.2018 08:00:00 9,2 6,0 - - 9 5 E 1026,6 18 0,0
18.05.2018 07:00:00 8,5 7,1 - - 9 5 ENE 1026,5 19 0,0

tt = temperature
td = dewpoint
tt -20cm = temperature -20cm
tt -100cm = temperature -100cm
ff = wind speed
dd = wind direction
ppp = reduced air pressure
vv = visibility
rr = precipitation

Next stations